Regional Weather Roundup
Issued by NWS

Home | Current Version | Previous Version | Text Only | Print | Product List | Glossary On
Versions: 1 2 3 4 5 6 7 8 9 10 11 12 13 14 15 16 17 18 19 20 21 22 23 24 25 26 27 28 29 30 31 32 33 34 35 36 37 38 39 40 41 42 43
000
ASUS44 KBMX 041810
RWRAL

ALABAMA REGIONAL WEATHER ROUNDUP
NATIONAL WEATHER SERVICE BIRMINGHAM AL
1200 PM CST FRI DEC 04 2020

NOTE: "FAIR" INDICATES FEW OR NO CLOUDS BELOW 12,000 FEET
WITH NO SIGNIFICANT WEATHER AND/OR OBSTRUCTIONS TO VISIBILITY.

THE REMARK "TC" DENOTES TEMPERATURE IN DEGREES CELSIUS.

ALZ001>011-014-016>018-020-041900-
NORTH ALABAMA

CITY           SKY/WX    TMP DP  RH WIND       PRES   REMARKS
MUSCLE SHOALS  CLOUDY    46  41  82 W12       30.05F
6HR MIN TEMP:  45; 6HR MAX TEMP:  47; 6HR PCP:  0.05;

HUNTSVILLE     CLOUDY    45  45 100 W13G18    30.02F FOG
6HR MIN TEMP:  45; 6HR MAX TEMP:  48; 6HR PCP:  0.28;

DECATUR        CLOUDY    44  41  89 W14       30.04F FOG
6HR MIN TEMP:  44; 6HR MAX TEMP:  47; 6HR PCP:  0.19;

HALEYVILLE     CLOUDY    41  40  96 W7G16     30.07F
6HR MIN TEMP:  41; 6HR MAX TEMP:  45; 6HR PCP:  0.07;

GADSDEN        CLOUDY    51  50  96 SE3       29.99F
6HR MIN TEMP:  49; 6HR MAX TEMP:  52;

$$

ALZ012-013-022-023-030>036-040>044-041900-
WEST CENTRAL ALABAMA

CITY           SKY/WX    TMP DP  RH WIND       PRES   REMARKS
TUSCALOOSA     CLOUDY    46  44  93 NW13G18   30.10S
6HR MIN TEMP:  46; 6HR MAX TEMP:  49; 6HR PCP:  0.06;

DEMOPOLIS      CLOUDY    47  44  89 W13       30.11S
6HR MIN TEMP:  46; 6HR MAX TEMP:  49;

$$

ALZ015-024>026-033>036-041>044-041900-
CENTRAL ALABAMA

CITY           SKY/WX    TMP DP  RH WIND       PRES   REMARKS
BIRMINGHAM     CLOUDY    51  49  92 W14       30.04S FOG
6HR MIN TEMP:  51; 6HR MAX TEMP:  54; 6HR PCP:  0.19;

MONTGOMERY     CLOUDY    56  53  90 W8        30.03F
6HR MIN TEMP:  51; 6HR MAX TEMP:  56; 6HR PCP:  0.01;

SHELBY CO ARPT CLOUDY    51  51 100 W10       30.02F
6HR MIN TEMP:  51; 6HR MAX TEMP:  53; 6HR PCP:  0.56;

MAXWELL AFB    CLOUDY    55  54  99 W6        30.02F
6HR MIN TEMP:  51; 6HR MAX TEMP:  55; 6HR PCP:  0.03;

GREENVILLE     NOT AVBL
SELMA          CLOUDY    52  50  93 W13G18    30.05S
PRATTVILLE     CLOUDY    53  53 100 W3        30.02F
6HR MIN TEMP:  51; 6HR MAX TEMP:  53; 6HR PCP:  0.04;

BESSEMER       FOG       49  49 100 W12       30.03F VSB 3/4
6HR MIN TEMP:  49; 6HR MAX TEMP:  51;

TALLADEGA      HVY RAIN  52  52 100 CALM      30.01F
6HR MIN TEMP:  51; 6HR MAX TEMP:  53; 6HR PCP:  0.43;

PELL CITY      CLOUDY    54  52  94 S7        30.00F
MARION         NOT AVBL
SYLACAUGA      DRIZZLE   53  52  97 CALM      30.00F
6HR MIN TEMP:  51; 6HR MAX TEMP:  53; 6HR PCP:  0.30;

$$

ALZ019-021-028-029-037-038-045>048-041900-
EAST CENTRAL ALABAMA

CITY           SKY/WX    TMP DP  RH WIND       PRES   REMARKS
ANNISTON       HVY RAIN  52  51  97 S3        29.99F VSB 1
6HR MIN TEMP:  52; 6HR MAX TEMP:  54; 6HR PCP:  0.36;

ALEXANDER CITY DRIZZLE   55  54  97 SW6       30.00F
6HR MIN TEMP:  51; 6HR MAX TEMP:  55; 6HR PCP:  0.20;

AUBURN         LGT RAIN  58  56  93 S10       29.99F
6HR MIN TEMP:  49; 6HR MAX TEMP:  58; 6HR PCP:  0.01;

$$

ALZ051>064-041900-
SOUTHWEST ALABAMA

CITY           SKY/WX    TMP DP  RH WIND       PRES   REMARKS
MOBILE         CLOUDY    54  52  93 NW10G17   30.08F FOG
6HR MIN TEMP:  53; 6HR MAX TEMP:  61; 6HR PCP:  0.03;

BROOKLEY FIELD CLOUDY    59  53  80 N13       30.08F
6HR MIN TEMP:  56; 6HR MAX TEMP:  62; 6HR PCP:  0.02;

EVERGREEN      CLOUDY    57  53  86 NW5       30.04F FOG
6HR MIN TEMP:  54; 6HR MAX TEMP:  59; 6HR PCP:  0.15;

$$

ALZ049-050-065>069-041900-
SOUTHEAST ALABAMA

CITY           SKY/WX    TMP DP  RH WIND       PRES   REMARKS
DOTHAN         LGT RAIN  63  62  97 S7        30.04F FOG
6HR MIN TEMP:  49; 6HR MAX TEMP:  66; 6HR PCP:  0.09;

OZARK          CLOUDY    63  63 100 CALM      30.00F
6HR MIN TEMP:  47; 6HR MAX TEMP:  64; 6HR PCP:  0.11;

TROY           CLOUDY    62  59  90 W7        30.01F
6HR MIN TEMP:  54; 6HR MAX TEMP:  63; 6HR PCP:  0.07;

EUFAULA        PTSUNNY   66  58  75 S7        30.00F
6HR MIN TEMP:  50; 6HR MAX TEMP:  66; 6HR PCP: TRACE;

$$



USA.gov is the U.S. government's official web portal to all federal, state and local government web resources and services.